Weather in Dolgiy Ostrov

Russia / Chuvash Republic     55°07′03″N   47°32′57″E
temp.,
°C
wind,
m/s
gust,
m/s
humid.,
%
clouds,
%
prec.,
mm/h
press.,
hPa
HPBL,
m
8 march, mon
mon800:00−5ssw71493100 1.1 995855
03:00−4ssw81595100 2.2 993901
06:00−7w8158777 0.4 993504
09:00−6wsw7129069 0.4 997719
12:00−5wsw7108398 0.1 999978
15:00−5wsw588372 0.1 999833
18:00−8ssw128999 0.1 99921
21:00−8nnw3496100 2.0 1001125
9 march, tue
tue900:00−10wnw5109393 1.3 1004220
03:00−15w479547 1.3 1007110
06:00−16wsw479714 0.0 1008108
09:00−13w359441 0.0 1010241
12:00−10wnw348692 0.0 1010514
15:00−9nw238996 0.1 1010457
18:00−12n4795100 0.4 1011313
21:00−14nnw499698 0.4 1012263
10 march, wed
wed1000:00−16nnw489797 0.1 1013182
03:00−19nnw599798 0.1 1014254
06:00−21nnw51097100 0.1 1015288
09:00−22nnw61096100 0.1 1017351
12:00−20nnw6993100 0.0 1018421
15:00−20nnw6109197 0.0 1020538
18:00−22nw4109290 0.0 1021238
21:00−24nw479645 0.0 1023121
11 march, thu
thu1100:00−25nw47990 0.0 102389
03:00−24wnw4710044 0.0 1024115
06:00−25wnw499861 0.0 1024143
09:00−20w6109467 0.0 1024273
12:00−15wnw6992100 0.0 1024455
15:00−12wnw61092100 0.1 1024468
18:00−13wnw41094100 0.0 1024269
21:00−13wnw5119597 0.1 1026211
12 march, fri
fri1200:00−15wnw489510 0.0 1028132
03:00−17wnw45945 0.0 102984
06:00−18wnw44920 0.0 103062
09:00−13w46890 0.0 1031206
12:00−8w35850 0.0 1031342
15:00−7wsw46830 0.0 1030432
18:00−12sw34910 0.0 103045
21:00−14sw47910 0.0 1030103